ACA788B KORD-CYYZ

Flight info

Callsign ACA788B
Flight time 0h 56m
Altitude 39000
Route EBAKE DCT WISMO DCT POSTS DCT PADDE DCT SVM DCT QWERI NUBER6
Aircraft A346/H-SDE2E3FGHIJ3J4J5M1RWXY/LB1D1

Departure

Time 2026-05-07 23:06
Airport Chicago O'Hare International Airport (KORD)

Arrival

Time 2026-05-08 00:03
Airport Toronto Pearson International Airport (CYYZ)
Time Latitude Longitude Altitude Speed Heading
2026-05-07 22:07 41.97344 -87.88728 661 ft 0 kts 359°
2026-05-07 22:51 41.97332 -87.88727 661 ft 2 kts 349°
2026-05-07 22:51 41.97317 -87.88721 661 ft 2 kts 334°
2026-05-07 22:51 41.97304 -87.88711 662 ft 2 kts 322°
2026-05-07 22:51 41.97294 -87.88697 662 ft 2 kts 309°
2026-05-07 22:52 41.97286 -87.88681 662 ft 2 kts 297°
2026-05-07 22:52 41.97281 -87.88663 662 ft 2 kts 284°
2026-05-07 22:52 41.97278 -87.88644 662 ft 2 kts 272°
2026-05-07 22:52 41.97279 -87.88624 662 ft 2 kts 267°
2026-05-07 22:53 41.97279 -87.88604 662 ft 2 kts 269°
2026-05-07 22:53 41.97279 -87.88593 662 ft 0 kts 270°
2026-05-07 22:55 41.97279 -87.88599 662 ft 2 kts 270°
2026-05-07 22:56 41.97279 -87.88638 662 ft 6 kts 270°
2026-05-07 22:56 41.97279 -87.88716 662 ft 10 kts 270°
2026-05-07 22:56 41.97280 -87.88825 662 ft 13 kts 270°
2026-05-07 22:56 41.97274 -87.88957 662 ft 15 kts 262°
2026-05-07 22:57 41.97268 -87.89108 662 ft 17 kts 270°
2026-05-07 22:57 41.97267 -87.89209 663 ft 5 kts 269°
2026-05-07 22:57 41.97267 -87.89214 663 ft 0 kts 269°
2026-05-07 22:59 41.97267 -87.89215 663 ft 0 kts 269°
2026-05-07 22:59 41.97267 -87.89230 664 ft 2 kts 269°
2026-05-07 22:59 41.97267 -87.89263 664 ft 4 kts 275°
2026-05-07 22:59 41.97286 -87.89309 664 ft 7 kts 313°
2026-05-07 23:00 41.97327 -87.89362 664 ft 7 kts 298°
2026-05-07 23:00 41.97320 -87.89432 664 ft 9 kts 236°
2026-05-07 23:00 41.97308 -87.89453 664 ft 0 kts 232°
2026-05-07 23:00 41.97303 -87.89462 664 ft 3 kts 232°
2026-05-07 23:01 41.97282 -87.89499 664 ft 6 kts 235°
2026-05-07 23:01 41.97250 -87.89570 664 ft 10 kts 240°
2026-05-07 23:01 41.97211 -87.89669 664 ft 13 kts 244°
2026-05-07 23:01 41.97169 -87.89786 667 ft 14 kts 245°
2026-05-07 23:02 41.97140 -87.89902 669 ft 13 kts 258°
2026-05-07 23:02 41.97134 -87.90013 670 ft 10 kts 270°
2026-05-07 23:02 41.97120 -87.90106 670 ft 11 kts 227°
2026-05-07 23:02 41.97062 -87.90104 670 ft 10 kts 119°
2026-05-07 23:03 41.97039 -87.89996 668 ft 13 kts 84°
2026-05-07 23:03 41.97046 -87.89864 668 ft 15 kts 88°
2026-05-07 23:03 41.97045 -87.89713 665 ft 12 kts 94°
2026-05-07 23:03 41.97024 -87.89612 664 ft 7 kts 116°
2026-05-07 23:04 41.97020 -87.89603 664 ft 0 kts 121°
2026-05-07 23:04 41.97015 -87.89592 664 ft 3 kts 129°
2026-05-07 23:05 41.96986 -87.89567 664 ft 7 kts 160°
2026-05-07 23:05 41.96929 -87.89562 663 ft 5 kts 192°
2026-05-07 23:05 41.96909 -87.89603 662 ft 7 kts 258°
2026-05-07 23:05 41.96904 -87.89692 663 ft 11 kts 269°
2026-05-07 23:06 41.96904 -87.90114 670 ft 84 kts 270°
2026-05-07 23:06 41.96898 -87.91222 678 ft 149 kts 269°
2026-05-07 23:06 41.96898 -87.92786 955 ft 177 kts 270°
2026-05-07 23:06 41.96897 -87.94424 1618 ft 177 kts 270°
2026-05-07 23:07 41.96984 -87.95998 2448 ft 170 kts 291°
2026-05-07 23:07 41.97748 -87.97189 2925 ft 180 kts 329°
2026-05-07 23:07 41.99054 -87.97446 3247 ft 207 kts
2026-05-07 23:07 42.00402 -87.96532 3673 ft 230 kts 32°
2026-05-07 23:08 42.01707 -87.95107 4083 ft 253 kts 35°
2026-05-07 23:08 42.03060 -87.93550 4666 ft 267 kts 36°
2026-05-07 23:08 42.04488 -87.91887 5390 ft 278 kts 36°
2026-05-07 23:08 42.05945 -87.90173 6246 ft 283 kts 36°
2026-05-07 23:09 42.07426 -87.88423 7111 ft 288 kts 36°
2026-05-07 23:09 42.08927 -87.86639 8009 ft 292 kts 36°
2026-05-07 23:09 42.10453 -87.84802 8917 ft 297 kts 39°
2026-05-07 23:09 42.11824 -87.82694 9805 ft 305 kts 46°
2026-05-07 23:10 42.13112 -87.80448 10627 ft 312 kts 47°
2026-05-07 23:10 42.14463 -87.78043 11162 ft 330 kts 48°
2026-05-07 23:10 42.15888 -87.75523 11653 ft 348 kts 47°
2026-05-07 23:10 42.17374 -87.72909 12355 ft 357 kts 48°
2026-05-07 23:11 42.18891 -87.70239 13285 ft 360 kts 47°
2026-05-07 23:11 42.20394 -87.67593 14181 ft 363 kts 47°
2026-05-07 23:11 42.21926 -87.64841 15007 ft 370 kts 51°
2026-05-07 23:11 42.22985 -87.61657 15748 ft 385 kts 73°
2026-05-07 23:12 42.23377 -87.58073 16539 ft 392 kts 82°
2026-05-07 23:12 42.23599 -87.54396 17309 ft 398 kts 82°
2026-05-07 23:12 42.23822 -87.50661 18042 ft 403 kts 82°
2026-05-07 23:12 42.24052 -87.46923 18777 ft 408 kts 82°
2026-05-07 23:13 42.24285 -87.43088 19508 ft 412 kts 82°
2026-05-07 23:13 42.24519 -87.39224 20205 ft 417 kts 82°
2026-05-07 23:13 42.24754 -87.35326 20890 ft 422 kts 81°
2026-05-07 23:13 42.24991 -87.31380 21502 ft 427 kts 82°
2026-05-07 23:14 42.25229 -87.27365 22132 ft 432 kts 82°
2026-05-07 23:14 42.25464 -87.23367 22734 ft 437 kts 82°
2026-05-07 23:14 42.25703 -87.19267 23359 ft 441 kts 82°
2026-05-07 23:14 42.25941 -87.15137 23974 ft 445 kts 81°
2026-05-07 23:15 42.26183 -87.10947 24553 ft 449 kts 81°
2026-05-07 23:15 42.26424 -87.06764 25085 ft 454 kts 82°
2026-05-07 23:15 42.26670 -87.02490 25584 ft 460 kts 81°
2026-05-07 23:15 42.26915 -86.98170 26072 ft 465 kts 82°
2026-05-07 23:16 42.27158 -86.93858 26527 ft 470 kts 82°
2026-05-07 23:16 42.27405 -86.89445 26981 ft 476 kts 82°
2026-05-07 23:16 42.27654 -86.84956 27452 ft 481 kts 82°
2026-05-07 23:16 42.27898 -86.80477 27915 ft 485 kts 82°
2026-05-07 23:17 42.28145 -86.75947 28372 ft 490 kts 82°
2026-05-07 23:17 42.28396 -86.71325 28807 ft 495 kts 82°
2026-05-07 23:17 42.28645 -86.66713 29239 ft 500 kts 82°
2026-05-07 23:17 42.28896 -86.62011 29618 ft 505 kts 82°
2026-05-07 23:18 42.29145 -86.57288 30049 ft 510 kts 82°
2026-05-07 23:18 42.29397 -86.52520 30409 ft 514 kts 82°
2026-05-07 23:18 42.29646 -86.47721 30750 ft 518 kts 82°
2026-05-07 23:18 42.29898 -86.42873 31086 ft 522 kts 82°
2026-05-07 23:19 42.30148 -86.38004 31435 ft 526 kts 82°
2026-05-07 23:19 42.30397 -86.33051 31790 ft 529 kts 83°
2026-05-07 23:19 42.30648 -86.28098 32120 ft 533 kts 83°
2026-05-07 23:19 42.30896 -86.23132 32446 ft 536 kts 83°
2026-05-07 23:20 42.31147 -86.18076 32772 ft 540 kts 83°
2026-05-07 23:20 42.31392 -86.13033 33087 ft 543 kts 83°
2026-05-07 23:20 42.31548 -86.07937 33419 ft 546 kts 87°
2026-05-07 23:20 42.31532 -86.02863 33856 ft 546 kts 89°
2026-05-07 23:21 42.31475 -85.97742 34312 ft 545 kts 89°
2026-05-07 23:21 42.31405 -85.92661 34766 ft 543 kts 89°
2026-05-07 23:21 42.31332 -85.87601 35214 ft 542 kts 89°
2026-05-07 23:21 42.31261 -85.82526 35654 ft 540 kts 89°
2026-05-07 23:22 42.31194 -85.77508 36051 ft 539 kts 89°
2026-05-07 23:22 42.31130 -85.72475 36432 ft 538 kts 89°
2026-05-07 23:22 42.31061 -85.67429 36770 ft 537 kts 89°
2026-05-07 23:22 42.30992 -85.62416 37093 ft 537 kts 89°
2026-05-07 23:23 42.30917 -85.57368 37371 ft 538 kts 90°
2026-05-07 23:23 42.30842 -85.52370 37626 ft 539 kts 89°
2026-05-07 23:23 42.30766 -85.47275 37876 ft 540 kts 90°
2026-05-07 23:23 42.30687 -85.42216 38175 ft 541 kts 90°
2026-05-07 23:24 42.30605 -85.37192 38459 ft 542 kts 90°
2026-05-07 23:24 42.30522 -85.32070 38715 ft 543 kts 91°
2026-05-07 23:24 42.30436 -85.27020 38912 ft 544 kts 91°
2026-05-07 23:25 42.30253 -85.16821 38940 ft 545 kts 91°
2026-05-07 23:25 42.30061 -85.06643 38946 ft 545 kts 91°
2026-05-07 23:26 42.29847 -84.96429 38948 ft 545 kts 91°
2026-05-07 23:26 42.29600 -84.86274 38957 ft 544 kts 91°
2026-05-07 23:27 42.29215 -84.71040 38960 ft 545 kts 91°
2026-05-07 23:27 42.28946 -84.60843 38961 ft 545 kts 91°
2026-05-07 23:28 42.28826 -84.50639 38964 ft 544 kts 86°
2026-05-07 23:28 42.29521 -84.40543 38963 ft 542 kts 78°
2026-05-07 23:29 42.30910 -84.30590 38956 ft 542 kts 76°
2026-05-07 23:29 42.32375 -84.20628 38956 ft 542 kts 77°
2026-05-07 23:30 42.33795 -84.10663 38949 ft 542 kts 77°
2026-05-07 23:30 42.35186 -84.00742 38952 ft 542 kts 77°
2026-05-07 23:31 42.36568 -83.90779 38949 ft 542 kts 77°
2026-05-07 23:31 42.37944 -83.80800 38948 ft 541 kts 77°
2026-05-07 23:32 42.39315 -83.70798 38948 ft 541 kts 77°
2026-05-07 23:32 42.40698 -83.60829 38952 ft 540 kts 75°
2026-05-07 23:33 42.42569 -83.51082 38950 ft 539 kts 71°
2026-05-07 23:33 42.44632 -83.41389 38954 ft 539 kts 71°
2026-05-07 23:34 42.46697 -83.31613 38644 ft 540 kts 71°
2026-05-07 23:34 42.47706 -83.26791 38245 ft 537 kts 71°
2026-05-07 23:34 42.48713 -83.21944 37853 ft 533 kts 72°
2026-05-07 23:35 42.49711 -83.17137 37494 ft 532 kts 71°
2026-05-07 23:35 42.50707 -83.12316 37176 ft 531 kts 71°
2026-05-07 23:35 42.51698 -83.07522 36857 ft 531 kts 71°
2026-05-07 23:35 42.52682 -83.02750 36537 ft 531 kts 71°
2026-05-07 23:36 42.53676 -82.97909 36214 ft 531 kts 72°
2026-05-07 23:36 42.54656 -82.93129 35898 ft 531 kts 71°
2026-05-07 23:36 42.55638 -82.88327 35579 ft 531 kts 71°
2026-05-07 23:36 42.56624 -82.83498 35256 ft 531 kts 72°
2026-05-07 23:37 42.57606 -82.78670 34932 ft 531 kts 71°
2026-05-07 23:37 42.58573 -82.73906 34612 ft 532 kts 71°
2026-05-07 23:37 42.59554 -82.69061 34284 ft 532 kts 71°
2026-05-07 23:37 42.60524 -82.64263 33959 ft 533 kts 71°
2026-05-07 23:38 42.61503 -82.59408 33624 ft 534 kts 71°
2026-05-07 23:38 42.62483 -82.54537 33299 ft 534 kts 71°
2026-05-07 23:38 42.63448 -82.49721 32995 ft 535 kts 71°
2026-05-07 23:38 42.64410 -82.44907 32694 ft 532 kts 72°
2026-05-07 23:39 42.65379 -82.40038 32389 ft 527 kts 71°
2026-05-07 23:39 42.66320 -82.35323 32088 ft 523 kts 70°
2026-05-07 23:39 42.67442 -82.30634 31777 ft 518 kts 66°
2026-05-07 23:39 42.68818 -82.26183 31475 ft 511 kts 60°
2026-05-07 23:40 42.70464 -82.21941 31172 ft 502 kts 54°
2026-05-07 23:40 42.72328 -82.18007 30960 ft 490 kts 49°
2026-05-07 23:40 42.74279 -82.14387 30926 ft 475 kts 47°
2026-05-07 23:40 42.76262 -82.10821 30923 ft 460 kts 47°
2026-05-07 23:41 42.78144 -82.07412 30923 ft 447 kts 47°
2026-05-07 23:41 42.79925 -82.04041 30918 ft 435 kts 51°
2026-05-07 23:41 42.83039 -81.96895 30923 ft 451 kts 56°
2026-05-07 23:42 42.86086 -81.89461 30925 ft 453 kts 56°
2026-05-07 23:42 42.87629 -81.85688 30789 ft 453 kts 56°
2026-05-07 23:42 42.89152 -81.81972 30494 ft 451 kts 56°
2026-05-07 23:43 42.90662 -81.78292 30196 ft 448 kts 56°
2026-05-07 23:43 42.92178 -81.74598 29904 ft 444 kts 56°
2026-05-07 23:43 42.93687 -81.70921 29609 ft 441 kts 56°
2026-05-07 23:43 42.95165 -81.67319 29316 ft 438 kts 56°
2026-05-07 23:44 42.96644 -81.63711 29017 ft 434 kts 56°
2026-05-07 23:44 42.98110 -81.60128 28714 ft 431 kts 56°
2026-05-07 23:44 42.99557 -81.56581 28407 ft 428 kts 56°
2026-05-07 23:44 43.00990 -81.53071 28093 ft 425 kts 56°
2026-05-07 23:45 43.02430 -81.49532 27788 ft 422 kts 56°
2026-05-07 23:45 43.03846 -81.46053 27486 ft 419 kts 57°
2026-05-07 23:45 43.05246 -81.42603 27188 ft 416 kts 57°
2026-05-07 23:45 43.06648 -81.39148 26858 ft 413 kts 57°
2026-05-07 23:46 43.08010 -81.35777 26559 ft 410 kts 57°
2026-05-07 23:46 43.09395 -81.32359 26239 ft 407 kts 57°
2026-05-07 23:46 43.10766 -81.28994 25889 ft 404 kts 57°
2026-05-07 23:46 43.12112 -81.25665 25526 ft 406 kts 58°
2026-05-07 23:47 43.13488 -81.22158 25159 ft 423 kts 59°
2026-05-07 23:47 43.14863 -81.18607 24789 ft 424 kts 59°
2026-05-07 23:47 43.16219 -81.15090 24418 ft 420 kts 59°
2026-05-07 23:47 43.17580 -81.11563 24011 ft 417 kts 59°
2026-05-07 23:48 43.18912 -81.08106 23571 ft 415 kts 59°
2026-05-07 23:48 43.20257 -81.04621 23030 ft 414 kts 59°
2026-05-07 23:48 43.21602 -81.01135 22502 ft 414 kts 59°
2026-05-07 23:48 43.22947 -80.97649 21965 ft 413 kts 59°
2026-05-07 23:49 43.24275 -80.94201 21434 ft 411 kts 59°
2026-05-07 23:49 43.25608 -80.90734 20809 ft 405 kts 59°
2026-05-07 23:49 43.26886 -80.87402 20262 ft 393 kts 59°
2026-05-07 23:49 43.28151 -80.84102 19797 ft 391 kts 59°
2026-05-07 23:50 43.29416 -80.80801 19285 ft 392 kts 59°
2026-05-07 23:50 43.30683 -80.77495 18756 ft 392 kts 59°
2026-05-07 23:50 43.31953 -80.74177 18229 ft 392 kts 59°
2026-05-07 23:50 43.33207 -80.70892 17704 ft 391 kts 59°
2026-05-07 23:51 43.34456 -80.67621 17183 ft 390 kts 59°
2026-05-07 23:51 43.35719 -80.64312 16570 ft 386 kts 59°
2026-05-07 23:51 43.36929 -80.61132 16015 ft 371 kts 59°
2026-05-07 23:51 43.38115 -80.58010 15485 ft 365 kts 59°
2026-05-07 23:52 43.39270 -80.54971 14952 ft 352 kts 59°
2026-05-07 23:52 43.40379 -80.52043 14422 ft 342 kts 60°
2026-05-07 23:52 43.41472 -80.49159 13878 ft 345 kts 60°
2026-05-07 23:52 43.42586 -80.46220 13279 ft 350 kts 59°
2026-05-07 23:53 43.43713 -80.43240 12667 ft 354 kts 60°
2026-05-07 23:53 43.44828 -80.40284 11966 ft 348 kts 60°
2026-05-07 23:53 43.45815 -80.37296 11309 ft 340 kts 69°
2026-05-07 23:53 43.46425 -80.34206 10666 ft 334 kts 77°
2026-05-07 23:54 43.46882 -80.31136 10025 ft 327 kts 78°
2026-05-07 23:54 43.47313 -80.28097 9377 ft 321 kts 78°
2026-05-07 23:54 43.47745 -80.25131 8742 ft 316 kts 78°
2026-05-07 23:54 43.48188 -80.22172 8142 ft 314 kts 77°
2026-05-07 23:55 43.48640 -80.19224 7519 ft 322 kts 77°
2026-05-07 23:55 43.49106 -80.16216 6883 ft 329 kts 76°
2026-05-07 23:55 43.49581 -80.13171 6151 ft 323 kts 76°
2026-05-07 23:55 43.50048 -80.10171 5524 ft 314 kts 76°
2026-05-07 23:56 43.50489 -80.07343 5208 ft 296 kts 76°
2026-05-07 23:56 43.50905 -80.04647 4946 ft 279 kts 75°
2026-05-07 23:56 43.51299 -80.02120 4685 ft 264 kts 76°
2026-05-07 23:56 43.51673 -79.99712 4427 ft 251 kts 75°
2026-05-07 23:57 43.52029 -79.97416 4210 ft 239 kts 75°
2026-05-07 23:57 43.52370 -79.95220 4116 ft 233 kts 75°
2026-05-07 23:57 43.52710 -79.93032 4001 ft 231 kts 75°
2026-05-07 23:57 43.53046 -79.90877 3994 ft 231 kts 75°
2026-05-07 23:58 43.53376 -79.88742 3983 ft 224 kts 75°
2026-05-07 23:58 43.53687 -79.86713 4008 ft 211 kts 75°
2026-05-07 23:58 43.53984 -79.84776 3989 ft 202 kts 75°
2026-05-07 23:58 43.54272 -79.82900 3986 ft 200 kts 75°
2026-05-07 23:59 43.54563 -79.81015 3791 ft 199 kts 75°
2026-05-07 23:59 43.54933 -79.79237 3535 ft 192 kts 62°
2026-05-07 23:59 43.55609 -79.77694 3320 ft 181 kts 48°
2026-05-07 23:59 43.56406 -79.76405 3184 ft 176 kts 41°
2026-05-08 00:00 43.57250 -79.75203 3057 ft 175 kts 41°
2026-05-08 00:00 43.58102 -79.73998 2860 ft 174 kts 41°
2026-05-08 00:00 43.58917 -79.72824 2605 ft 164 kts 42°
2026-05-08 00:00 43.59678 -79.71713 2369 ft 155 kts 42°
2026-05-08 00:01 43.60417 -79.70634 2175 ft 153 kts 43°
2026-05-08 00:01 43.61134 -79.69585 1980 ft 151 kts 43°
2026-05-08 00:01 43.61875 -79.68510 1829 ft 156 kts 43°
2026-05-08 00:01 43.62608 -79.67427 1639 ft 152 kts 43°
2026-05-08 00:02 43.63316 -79.66367 1365 ft 154 kts 44°
2026-05-08 00:02 43.64075 -79.65290 1207 ft 154 kts 42°
2026-05-08 00:02 43.64822 -79.64269 987 ft 149 kts 45°
2026-05-08 00:02 43.65506 -79.63232 759 ft 144 kts 45°
2026-05-08 00:03 43.66172 -79.62259 559 ft 134 kts 45°
2026-05-08 00:03 43.66712 -79.61490 557 ft 81 kts 45°
2026-05-08 00:03 43.66951 -79.61149 558 ft 19 kts 46°
2026-05-08 00:03 43.67064 -79.61063 561 ft 18 kts 11°
2026-05-08 00:04 43.67117 -79.61053 562 ft 0 kts 358°
2026-05-08 00:04 43.67118 -79.61053 562 ft 0 kts 358°
2026-05-08 00:04 43.67134 -79.61054 562 ft 3 kts 354°
2026-05-08 00:05 43.67194 -79.61055 564 ft 11 kts 14°
2026-05-08 00:05 43.67274 -79.60983 565 ft 16 kts 43°
2026-05-08 00:05 43.67354 -79.60867 566 ft 16 kts 46°
2026-05-08 00:05 43.67444 -79.60840 568 ft 11 kts 332°
2026-05-08 00:06 43.67509 -79.60915 570 ft 13 kts 308°
2026-05-08 00:06 43.67578 -79.61000 571 ft 14 kts 328°